Wind_Speed
12 12 10 8 7 8 8 9 10 10 10 10 9 8 6 5 5 6 7 7 6 6 6 4 4 5 7 8 10 11 11 11 11 15 16 9 8 11 12 14 12 10 9 7 5 5 5 5 6 6 6 5 5 4 4 5 6 4 3 3 1 3 5 4 5 4 1 4 10 13 7 2 6 11 13 14 15 20 15 10 11 4 6 20 23 30 32 27
11 11 10 7 6 7 8 9 9 9 10 10 9 7 6 5 5 5 5 6 6 5 4 3 4 6 7 8 10 11 11 11 13 16 12 6 9 14 14 15 13 11 9 6 4 4 4 4 5 5 3 4 3 3 3 3 6 5 3 2 3 5 5 5 5 6 4 4 11 10 4 3 10 15 15 12 8 14 14 10 12 14 17 22 29 33 29 28
10 9 8 6 6 7 8 9 9 9 9 9 9 7 6 5 4 4 3 4 4 4 3 3 5 6 7 8 9 10 10 11 12 9 6 5 9 13 13 15 13 11 9 6 3 2 2 3 5 3 2 4 3 4 4 1 4 4 3 2 5 6 5 8 11 13 10 5 12 7 2 3 9 15 15 12 8 9 10 11 14 19 25 30 35 33 29 29
9 8 7 6 6 7 8 9 9 9 9 9 9 8 6 5 4 3 3 3 3 3 3 4 5 5 7 8 8 8 9 9 5 2 1 1 5 9 11 14 14 12 9 6 4 2 2 3 4 3 2 4 3 3 5 4 4 2 4 4 6 4 4 12 15 17 15 9 10 3 7 2 4 11 17 18 10 2 7 20 23 25 35 38 38 34 31 30
9 8 7 7 7 8 8 9 9 9 9 9 9 8 6 5 4 3 2 2 2 3 4 4 5 5 6 7 7 7 6 4 1 1 1 2 5 8 9 12 13 12 9 6 4 3 3 4 4 3 2 3 2 1 4 7 5 1 4 7 10 5 3 14 17 14 14 10 7 3 6 3 3 9 20 21 10 9 18 26 29 32 38 40 39 37 34 30
9 8 8 8 8 9 9 9 9 9 9 8 8 8 7 5 4 3 2 1 2 3 4 4 4 5 5 6 6 5 3 1 1 1 1 2 5 7 8 10 11 11 9 6 4 3 3 4 4 3 1 2 2 3 5 7 5 3 5 7 12 10 6 17 18 12 10 5 2 4 4 4 8 8 15 13 6 16 26 28 29 32 36 39 41 39 36 31
9 9 9 9 9 9 9 10 10 10 9 8 7 7 6 6 5 4 3 2 2 3 4 4 4 4 5 5 4 4 5 4 5 3 2 3 4 7 9 10 10 10 8 6 5 4 5 5 4 2 1 2 3 5 7 8 6 5 5 6 13 13 13 22 22 17 12 5 2 7 8 4 8 9 9 7 7 13 24 28 31 33 37 41 41 40 36 31
9 9 9 9 10 10 10 10 10 10 9 8 7 7 6 5 5 4 3 2 2 3 3 3 2 3 3 3 3 5 7 5 5 4 4 4 4 6 8 9 9 8 6 6 6 6 7 7 6 4 1 2 3 4 7 6 3 5 7 8 11 13 16 24 25 25 19 7 3 5 8 4 8 8 4 4 4 14 25 29 30 34 39 40 41 39 34 30
9 9 9 10 10 11 11 11 11 10 9 9 8 7 6 5 4 4 3 2 2 2 2 2 2 3 2 3 4 5 3 2 4 5 4 4 3 3 6 6 6 6 6 7 8 10 9 5 5 4 2 5 5 6 5 2 2 6 10 10 9 12 16 19 21 25 21 10 4 4 4 3 9 7 1 2 6 19 25 27 29 34 38 39 40 37 34 31
8 8 9 10 11 12 13 12 12 11 11 10 9 8 7 5 3 3 3 2 2 2 2 2 2 3 3 3 3 2 1 2 5 6 4 2 1 3 5 5 5 6 6 8 10 10 6 4 5 6 6 7 5 5 3 2 4 6 9 12 13 17 18 15 17 20 16 8 4 5 3 3 6 4 2 3 12 22 24 25 29 35 38 39 39 37 33 31
7 8 9 10 11 12 13 13 12 12 12 12 10 9 8 5 3 2 3 2 2 2 2 2 3 4 4 4 3 1 1 2 5 7 4 3 5 6 7 7 7 6 6 7 7 5 6 8 10 9 6 5 6 6 4 3 7 13 12 10 12 12 12 9 9 12 9 3 2 5 4 0 2 2 6 11 19 25 27 27 30 34 36 38 39 36 33 31
6 7 8 9 10 11 13 13 12 12 13 13 13 11 9 6 3 2 2 2 2 2 2 2 3 4 5 8 8 3 1 1 3 5 4 5 6 6 5 5 4 3 1 2 3 6 8 10 11 10 7 6 6 4 6 9 12 14 9 4 6 6 3 7 5 7 4 3 5 5 4 4 2 4 7 17 24 26 29 30 31 33 34 37 38 36 34 33
4 5 7 8 8 10 12 13 12 12 13 13 13 13 11 9 5 3 3 2 1 2 2 2 3 5 6 7 5 3 2 4 2 3 4 4 4 2 1 0 1 2 4 5 5 5 7 11 11 13 13 8 4 4 8 13 12 11 5 2 3 7 1 4 1 3 3 3 8 7 2 5 7 6 8 20 25 25 26 30 32 31 32 36 37 36 35 35
4 4 5 6 7 8 10 11 12 12 13 13 13 12 11 10 7 4 4 3 1 1 1 2 4 4 6 5 2 3 5 7 6 2 5 4 3 2 2 2 3 4 5 7 5 5 8 12 11 13 13 8 6 8 8 9 7 5 3 2 2 2 3 7 4 2 3 3 8 8 1 6 8 7 12 22 25 26 25 27 31 30 32 35 36 36 35 35
4 4 5 5 5 6 8 10 11 11 12 13 14 13 11 9 8 5 4 3 2 1 1 3 4 5 8 7 3 5 7 8 7 3 3 4 3 2 2 2 4 5 7 9 7 7 11 14 12 11 10 8 7 5 4 5 4 3 2 3 4 2 3 9 5 4 4 3 4 7 0 6 8 6 16 23 24 26 25 26 29 30 31 33 34 34 34 34
5 5 4 5 5 5 7 8 10 10 11 12 14 15 11 8 7 7 5 3 2 2 3 4 5 6 7 5 2 4 7 7 5 4 5 6 4 3 1 3 6 8 10 12 11 12 13 13 11 8 6 6 2 4 4 5 4 4 2 1 3 2 3 5 4 3 3 1 1 3 2 4 6 6 20 26 26 27 25 25 28 29 30 31 32 33 33 34
5 5 5 5 5 5 6 6 8 9 10 11 13 14 11 7 6 6 6 4 3 3 4 5 6 8 6 4 3 3 5 7 6 5 6 5 4 2 2 5 7 8 11 13 13 13 12 8 5 4 2 2 2 4 3 3 3 4 3 2 3 1 1 3 4 5 1 2 4 2 4 6 6 3 17 27 28 25 23 25 28 30 30 30 32 33 34 37
6 6 6 6 5 5 5 5 6 7 8 10 13 12 9 8 5 4 5 5 5 4 5 5 4 5 4 4 6 8 9 9 7 6 5 4 4 4 6 8 9 11 12 10 7 5 6 4 1 1 3 4 3 5 2 3 2 2 1 1 3 2 1 2 4 5 5 2 5 3 5 8 8 4 6 18 26 24 22 26 28 30 30 30 32 34 35 38
6 6 6 6 6 5 4 4 3 4 6 9 12 9 6 9 5 3 5 7 6 4 4 4 3 3 5 9 11 11 11 7 7 7 7 5 6 7 9 11 12 11 6 4 3 2 1 1 2 1 3 4 2 4 6 7 6 4 3 4 1 1 3 4 5 5 3 2 2 4 6 5 6 8 5 5 18 25 24 22 23 23 25 28 31 34 36 39
6 5 6 6 5 5 4 3 2 3 6 8 11 8 5 8 5 2 9 13 12 9 9 10 11 12 14 14 10 9 9 3 6 7 6 6 7 8 10 12 11 7 1 1 3 3 2 0 1 4 6 7 7 6 6 4 4 3 3 4 1 1 3 5 5 6 1 3 3 4 5 3 4 8 8 4 5 15 19 18 19 22 23 26 30 34 37 40
5 5 5 5 4 4 3 2 1 3 6 7 10 8 5 7 4 5 12 15 14 13 13 13 13 16 17 13 8 10 11 4 6 7 5 7 8 6 7 7 4 3 3 2 2 2 2 0 5 8 9 8 6 5 4 4 4 3 3 2 2 0 3 5 4 6 3 4 3 4 1 3 5 6 7 6 2 7 15 18 21 25 27 29 33 34 35 35
5 5 4 4 3 2 1 1 2 4 7 7 8 7 5 5 4 7 9 11 16 15 12 11 13 17 18 13 10 12 11 5 7 10 8 8 10 7 4 3 2 2 3 2 2 4 4 4 10 9 6 3 1 2 4 5 5 3 2 2 2 2 3 6 5 6 4 3 3 3 2 4 7 6 7 7 4 5 12 20 26 28 27 28 31 32 30 29
4 4 3 2 1 0 1 1 2 4 7 7 8 8 6 4 3 8 8 9 14 14 11 11 13 16 16 13 10 10 9 6 7 11 11 11 11 9 5 3 2 1 2 2 3 0 2 7 8 3 5 5 1 2 5 3 3 3 3 3 2 3 0 3 5 6 4 2 1 1 3 5 6 5 6 7 6 7 5 13 23 30 31 31 33 33 32 33
4 3 1 1 1 1 1 1 3 5 5 5 7 7 7 6 6 10 9 6 7 9 8 8 10 14 15 12 9 8 9 8 7 8 10 13 11 6 5 4 3 1 3 3 6 4 6 9 4 3 5 6 3 1 4 4 2 2 3 5 3 3 3 4 4 5 5 4 2 4 5 5 5 5 6 5 5 7 7 5 12 22 30 35 35 33 34 36
3 2 1 3 3 3 1 1 3 5 2 3 3 4 7 9 10 12 8 2 4 5 3 4 7 11 12 10 9 9 8 9 11 10 9 12 11 5 3 4 3 3 5 4 5 2 8 8 2 1 3 5 5 4 4 6 3 4 3 6 7 5 4 3 3 5 4 5 3 3 2 5 5 4 6 5 5 5 6 6 10 15 19 27 32 33 34 35
2 2 2 4 5 4 1 1 2 3 0 1 4 5 9 12 10 10 5 3 2 4 1 3 4 5 7 7 8 6 2 5 11 13 12 11 12 8 2 2 2 3 4 4 3 1 5 5 2 2 4 4 5 5 4 6 4 2 5 7 7 5 4 3 1 4 2 3 4 2 3 4 5 4 6 5 6 8 8 6 11 18 17 19 28 35 36 37
3 2 2 5 6 6 4 2 2 3 3 5 7 8 10 11 7 6 3 4 3 4 1 3 3 3 5 5 8 6 1 3 4 8 13 11 12 12 6 2 1 3 3 3 1 2 3 6 6 3 1 3 4 5 5 7 7 3 5 6 7 5 5 5 5 4 2 3 4 5 4 2 4 5 6 5 6 8 9 8 10 17 22 19 24 32 37 40
3 2 2 4 6 7 6 4 4 5 6 8 10 10 10 7 4 1 2 3 3 3 1 2 3 3 5 4 10 8 1 2 0 3 10 10 11 10 5 5 5 4 3 4 3 5 1 3 4 0 3 2 5 6 7 8 4 6 6 6 5 4 5 5 6 4 1 1 3 6 2 1 4 6 5 5 4 7 8 10 9 15 23 21 20 28 35 40
3 3 2 2 3 3 4 5 5 6 9 11 11 9 7 4 2 1 4 2 2 2 1 2 1 4 5 2 8 9 4 2 1 2 5 8 12 8 2 5 5 3 0 3 4 6 3 5 5 4 4 3 6 5 8 10 4 4 5 5 3 4 5 4 5 4 2 2 4 6 1 2 3 6 5 3 3 6 7 8 9 15 22 21 17 21 32 38
3 3 2 2 1 1 2 4 6 8 10 11 11 7 4 2 2 3 2 1 1 2 2 1 2 4 3 1 2 5 4 4 4 4 5 6 9 7 3 3 3 4 1 3 2 5 5 4 3 4 5 6 6 4 5 8 5 3 5 4 5 5 4 3 2 4 2 1 6 7 5 4 2 5 4 3 4 3 4 7 9 14 21 23 20 15 26 37
2 3 1 1 2 2 4 4 6 8 9 9 9 5 1 1 3 4 1 2 1 3 4 2 3 4 1 1 2 3 1 3 3 5 5 3 3 3 1 1 2 3 3 5 2 5 7 3 2 3 5 4 3 1 1 1 2 5 4 4 2 3 4 4 4 3 1 4 6 6 4 5 2 5 5 5 5 3 4 7 9 12 18 24 23 11 18 33
2 1 2 2 1 2 4 3 5 6 7 7 8 4 1 1 2 1 2 2 1 2 3 2 3 4 3 1 1 4 2 2 2 3 5 3 3 3 2 4 2 2 4 2 2 5 4 4 3 4 4 4 4 0 3 5 5 5 4 5 3 2 3 2 3 1 3 5 5 4 2 2 4 6 5 6 7 7 6 7 7 7 17 26 25 11 8 20
1 2 3 3 4 6 6 5 5 5 5 6 6 2 4 4 0 2 2 2 1 2 1 3 3 2 2 4 3 5 3 2 4 2 2 2 2 4 3 3 5 2 3 3 1 3 3 5 5 4 3 2 5 3 2 3 1 3 4 4 3 2 1 2 3 2 3 5 4 3 2 2 3 3 5 6 7 7 6 4 6 16 23 29 31 23 7 7
1 2 2 2 4 6 7 8 8 6 7 9 5 2 4 2 2 2 2 2 2 2 2 2 4 4 4 4 1 3 3 3 5 3 1 1 0 3 4 3 3 3 2 1 1 1 0 4 3 1 2 1 3 5 5 4 3 3 3 5 4 4 3 4 3 3 4 4 4 3 1 2 1 1 6 7 4 7 9 10 18 25 28 32 36 35 25 9
1 1 2 3 5 6 7 9 11 9 10 10 5 4 2 2 3 1 2 3 1 2 3 3 3 4 5 2 2 3 3 2 5 4 1 1 1 3 2 3 2 3 4 2 2 1 1 5 6 3 2 1 2 2 5 6 2 3 2 5 2 4 5 2 2 4 3 1 2 2 2 3 2 3 7 5 2 7 13 19 25 25 29 36 35 34 34 27
3 4 4 4 6 8 9 11 12 11 10 7 6 3 2 3 2 2 2 2 1 1 3 4 4 4 4 4 3 5 3 1 4 4 2 1 0 2 2 3 2 2 5 3 3 1 1 4 6 4 3 2 2 1 1 2 1 1 1 2 4 3 6 3 1 0 3 1 3 1 2 4 1 1 6 4 4 7 11 16 20 21 27 34 31 30 33 33
5 6 4 4 5 9 11 13 14 13 8 5 5 1 3 3 3 3 1 1 1 1 4 3 3 1 2 3 3 5 5 4 4 3 2 3 2 2 3 3 2 0 2 3 2 2 3 3 6 0 1 3 2 5 5 4 3 4 1 4 3 1 3 3 0 3 4 0 4 1 2 4 1 1 6 6 7 7 7 8 13 18 25 26 25 28 30 30
7 6 4 3 5 9 10 12 13 10 4 4 2 2 2 1 1 1 4 3 1 2 5 1 2 0 1 1 3 5 4 3 3 3 2 2 1 1 2 2 2 5 3 3 2 1 3 2 7 1 2 5 4 5 2 7 5 5 3 2 1 1 1 1 1 0 0 2 3 3 2 3 3 4 3 0 3 3 5 7 9 12 17 19 22 26 28 28
7 4 3 4 5 7 9 10 9 5 3 3 0 2 1 2 3 8 11 6 0 3 2 2 1 1 1 2 3 3 3 1 2 3 1 1 2 1 3 1 3 8 8 5 4 2 2 1 6 4 1 3 5 2 2 4 5 3 2 3 2 3 3 0 1 2 2 3 2 3 3 2 5 6 6 7 6 4 4 6 7 7 11 15 19 22 24 26
7 2 2 1 3 5 10 10 6 2 2 0 2 2 2 2 5 11 15 9 2 1 0 3 2 0 3 2 1 2 1 0 1 1 1 0 3 3 6 5 3 7 9 6 4 1 2 2 4 6 4 2 2 0 4 3 1 2 3 3 3 1 1 0 0 2 2 3 3 2 3 4 5 4 7 8 6 5 5 5 5 6 11 14 16 19 21 23
8 3 1 2 4 5 10 8 2 2 1 0 1 1 3 3 4 8 12 12 6 1 1 3 4 2 3 1 1 2 0 0 1 1 1 1 1 1 6 8 4 5 6 5 3 1 1 1 3 3 4 2 4 4 4 5 5 4 2 1 1 1 0 1 2 2 1 2 3 4 2 6 5 2 3 6 6 5 5 6 5 6 12 14 15 18 19 21
8 3 2 4 6 7 9 4 1 2 2 1 2 3 5 5 3 5 8 11 7 2 1 2 3 2 2 2 2 2 2 1 2 1 2 1 1 1 6 14 11 4 2 2 3 2 2 3 2 2 4 4 7 7 4 4 3 5 2 2 3 2 3 3 3 3 1 1 1 4 1 5 5 3 1 4 5 5 4 6 6 8 12 14 16 17 18 19
9 7 5 4 5 6 6 2 3 4 0 2 4 4 5 4 2 4 5 6 5 3 2 1 1 1 1 1 1 2 2 1 3 2 2 2 1 1 9 19 16 7 3 2 3 1 2 2 2 2 4 4 7 5 2 1 3 6 1 1 4 4 4 4 4 2 2 2 1 2 2 5 5 4 2 1 2 2 1 3 7 8 10 13 14 14 15 16
12 11 7 4 6 6 2 1 1 2 3 5 4 3 4 3 2 4 3 3 3 1 1 1 1 1 0 1 2 2 2 1 2 3 1 2 1 6 15 20 15 7 4 2 2 1 2 0 2 2 4 5 7 6 4 4 2 3 0 2 3 3 4 2 1 3 1 3 3 4 4 5 4 4 4 3 3 4 3 3 6 7 9 10 11 12 12 13
10 8 6 5 7 3 4 5 2 2 2 4 4 4 4 2 2 5 5 4 3 1 0 2 2 1 2 2 2 1 1 2 1 3 1 2 2 5 15 17 13 9 6 6 6 3 1 1 2 2 2 3 2 3 3 3 1 0 1 2 2 2 3 1 1 3 1 3 2 4 3 4 4 5 6 5 4 5 4 0 4 7 8 8 9 10 10 11
5 3 4 7 8 8 10 10 7 2 0 3 3 3 2 1 3 7 6 3 5 3 3 4 4 3 4 4 3 4 3 2 2 1 2 4 3 3 11 12 12 13 10 14 16 6 2 1 1 5 5 5 5 6 5 2 1 3 2 3 2 1 1 3 2 2 3 2 2 4 5 4 7 5 5 6 5 4 4 3 4 6 8 8 9 9 11 12
2 1 2 4 6 6 7 10 11 5 1 1 1 2 2 2 3 5 4 2 7 7 5 5 6 4 2 4 2 1 3 3 3 3 1 3 3 4 10 7 8 14 13 14 16 7 4 3 2 5 5 6 7 7 5 1 3 5 3 3 5 4 3 5 3 4 4 2 5 6 5 4 7 6 5 6 5 5 4 4 4 6 8 8 8 10 11 11
3 1 2 3 2 0 2 7 9 6 3 1 1 1 4 5 4 3 2 1 6 8 4 3 6 4 1 2 2 1 2 3 4 2 1 2 2 4 8 4 5 13 14 11 11 6 4 2 3 2 4 6 5 6 5 3 3 5 4 5 6 6 5 6 7 7 6 5 8 7 6 6 7 6 6 6 5 5 5 5 5 6 8 9 10 11 11 10
4 1 2 4 2 2 2 6 7 4 4 3 2 3 4 5 5 4 3 2 3 5 4 1 2 2 1 2 4 2 0 0 1 2 1 1 3 2 4 3 3 10 12 7 6 4 3 2 3 1 3 6 5 5 4 3 4 3 4 5 5 6 8 8 7 6 8 8 9 6 6 8 6 6 8 9 8 4 2 5 7 8 9 10 11 11 10 10
6 3 4 6 4 3 5 5 3 2 3 4 3 3 3 4 5 5 5 3 1 3 3 2 3 3 1 3 5 3 3 5 4 2 2 1 2 1 1 2 2 5 8 3 3 4 2 2 2 2 3 6 6 5 4 2 3 4 5 4 5 6 7 6 5 4 5 7 8 5 6 8 6 6 8 7 5 2 5 7 7 8 8 9 10 10 9 9
5 4 6 5 3 4 5 5 3 3 3 4 2 2 3 3 5 6 4 4 4 1 0 2 4 2 2 4 4 3 7 7 6 6 6 4 2 3 3 2 1 3 4 1 1 2 2 1 2 4 3 6 4 5 7 5 3 5 6 5 6 7 6 5 4 5 6 6 5 3 4 6 5 4 3 3 6 6 4 5 5 6 7 8 7 7 8 9
4 2 4 3 1 3 4 3 3 3 1 3 4 4 3 4 8 6 2 3 5 4 2 4 4 1 2 3 3 3 7 6 5 7 6 7 8 8 8 7 5 2 1 1 1 1 2 1 1 1 2 6 4 5 5 4 5 8 7 7 10 9 7 5 3 5 7 6 5 4 6 6 3 3 2 2 4 3 2 3 4 6 6 5 5 7 9 12
Wind_Direction
343 345 343 340 343 346 349 353 353 350 347 346 340 331 322 305 283 271 265 258 247 239 238 241 247 254 259 268 272 274 277 276 272 263 267 275 229 215 197 187 182 185 192 190 197 214 210 201 190 200 227 242 262 263 237 222 202 182 124 106 193 232 225 194 192 222 269 304 299 318 327 201 128 117 125 129 121 122 127 117 141 171 167 167 155 149 153 154
345 346 345 342 344 349 352 355 355 352 351 347 341 335 329 314 290 274 266 255 236 228 230 234 239 248 261 271 278 283 288 284 279 269 269 281 222 207 195 188 185 191 196 188 194 212 204 201 201 205 253 273 262 255 250 212 194 178 117 124 211 221 218 210 215 256 274 289 299 305 301 224 137 127 133 131 112 114 106 98 122 118 131 150 149 151 156 158
347 350 349 347 350 354 353 353 356 355 354 350 344 342 337 324 300 277 261 247 231 224 221 231 239 253 266 273 285 292 299 295 288 279 271 270 228 204 192 189 187 191 190 180 187 211 194 181 200 212 304 300 268 270 293 213 199 203 152 169 240 226 235 262 252 262 268 274 307 321 133 187 138 136 141 129 115 120 126 135 130 126 138 149 152 156 160 162
354 358 357 358 358 359 357 357 358 358 357 354 351 348 338 327 312 280 259 241 225 218 218 235 245 259 270 280 294 296 312 315 300 278 224 227 198 194 191 188 189 188 182 182 192 211 228 186 202 239 309 293 276 282 286 240 223 203 163 192 237 223 236 268 262 266 279 292 306 2 119 153 149 149 146 133 113 77 186 169 162 153 152 154 157 161 163 167
4 6 7 9 7 5 5 5 3 0 359 358 358 352 343 331 317 293 278 252 229 223 230 246 251 268 279 287 297 301 331 357 55 72 149 134 158 188 195 193 195 190 181 185 207 230 242 211 216 266 301 280 280 268 257 239 228 236 229 221 240 244 245 271 274 284 296 290 290 71 111 157 157 158 152 146 143 194 198 182 173 165 161 163 163 165 167 169
16 19 23 24 21 17 16 13 8 5 1 0 360 354 349 335 321 311 297 269 242 234 239 251 263 278 286 294 304 306 327 36 336 353 179 189 176 190 198 199 201 195 184 185 217 237 241 222 219 258 287 267 233 201 250 252 218 234 269 245 254 254 242 272 276 290 314 300 257 104 133 172 143 157 165 169 200 195 190 182 174 170 169 169 166 168 169 171
31 35 38 35 32 27 21 16 11 9 5 2 360 355 353 341 331 321 308 288 250 244 251 261 277 285 291 302 319 300 279 303 337 338 279 259 208 209 210 207 207 197 181 185 213 215 218 209 204 231 336 291 243 219 262 267 211 210 270 263 269 262 250 271 276 278 293 303 285 116 119 142 145 161 183 224 263 197 183 176 173 169 168 168 167 169 169 171
43 46 45 40 33 26 17 12 9 6 4 2 360 355 354 349 342 333 322 303 263 249 255 264 277 280 292 300 325 310 287 309 353 340 302 276 247 229 212 206 201 190 175 187 201 197 206 211 223 229 174 260 250 238 272 289 228 206 244 260 271 266 261 274 278 274 271 259 259 113 109 132 152 160 186 270 244 180 174 172 169 165 165 167 168 168 168 172
47 47 43 36 28 22 16 11 7 6 3 360 357 352 352 353 350 342 329 312 282 262 257 271 268 259 273 281 314 322 297 333 358 346 320 284 277 214 186 183 171 164 166 184 190 192 207 222 240 247 264 280 275 268 277 294 254 214 231 255 266 263 265 270 270 266 258 234 195 114 79 119 143 149 241 312 171 170 171 167 167 166 166 168 169 168 170 175
44 42 38 32 27 22 17 13 12 12 10 4 359 350 348 351 356 350 333 314 285 284 278 265 257 248 262 281 316 335 81 59 8 358 346 308 92 124 129 125 132 140 160 177 180 190 224 272 291 305 300 291 284 274 267 178 246 271 264 271 274 264 259 259 258 254 242 218 175 133 131 156 152 155 264 220 165 168 167 162 167 168 167 170 170 171 175 178
38 36 33 30 27 22 19 17 17 18 18 15 9 358 351 351 359 359 345 324 288 294 289 260 261 264 272 280 272 261 125 49 21 19 28 84 92 93 95 98 109 119 145 169 185 222 285 299 304 309 300 306 311 283 271 267 287 297 296 290 288 271 246 239 239 236 217 186 187 140 126 125 153 191 219 185 163 170 169 163 169 169 169 171 172 174 179 180
27 27 25 26 24 22 21 20 21 21 20 19 16 12 5 2 7 14 8 342 308 292 281 265 274 283 290 279 261 239 190 273 29 48 71 96 95 90 89 89 95 101 139 218 255 287 302 304 299 292 288 302 316 299 290 314 315 305 304 287 308 341 230 223 204 208 194 178 193 139 35 337 283 261 203 170 163 170 170 165 170 172 172 173 175 180 183 184
9 14 15 18 18 19 20 23 26 23 21 20 17 16 16 17 20 22 19 2 335 309 291 283 295 300 298 284 252 188 205 251 262 100 110 125 132 119 102 299 297 286 287 297 323 331 311 303 291 285 293 285 267 296 302 317 325 311 319 146 319 8 331 241 192 193 185 199 186 148 350 288 271 275 165 162 166 166 167 168 172 175 174 176 181 185 186 187
339 350 359 7 11 12 13 20 25 24 23 21 17 15 15 17 19 22 18 12 11 332 313 301 303 299 288 272 204 213 242 251 261 192 145 163 169 195 231 247 283 286 289 298 324 332 309 307 297 291 293 273 272 304 314 330 343 318 328 51 18 31 275 299 330 190 172 228 189 144 207 252 270 274 166 167 171 166 169 174 175 176 177 180 184 188 188 189
319 320 336 353 0 5 6 10 16 19 18 16 16 10 4 6 10 17 16 18 29 325 301 297 299 311 297 279 233 249 252 246 263 264 182 195 198 203 207 265 294 305 305 298 305 308 305 305 296 286 284 282 302 334 349 341 352 0 347 330 346 84 270 304 314 202 193 262 180 132 196 262 271 246 175 173 175 173 177 180 180 180 181 184 185 187 188 188
310 307 313 332 345 355 0 359 1 7 9 9 9 4 357 355 355 1 9 15 13 316 303 297 305 329 306 290 282 249 251 257 267 267 235 229 234 218 188 298 299 310 311 303 298 293 294 297 290 282 289 298 327 72 38 356 343 1 56 256 304 7 320 310 323 266 229 285 273 146 189 255 281 215 177 177 181 182 183 184 186 186 186 187 186 185 185 184
299 297 296 307 319 332 342 347 348 354 0 4 5 3 357 352 344 352 5 8 356 320 303 288 296 312 285 276 347 319 282 279 265 252 246 245 253 262 288 291 305 311 308 306 295 283 279 285 285 276 314 359 69 83 35 346 323 320 21 52 284 295 331 311 314 318 5 188 244 241 202 235 284 219 175 184 188 186 189 191 191 191 191 190 187 186 184 183
290 286 288 290 296 312 320 328 336 342 350 0 3 0 358 1 352 338 353 357 348 332 308 284 285 313 275 263 318 330 322 294 267 255 244 245 252 264 275 280 298 302 307 314 303 281 265 271 7 325 359 3 28 78 130 235 216 263 323 40 324 320 308 288 276 311 0 297 231 210 232 248 277 303 172 188 194 194 199 199 197 196 193 191 188 188 188 187
292 282 280 283 291 304 311 320 325 334 346 358 2 4 9 6 351 308 336 328 309 304 301 277 263 287 273 287 307 325 327 294 260 251 229 230 239 247 259 268 280 287 308 333 319 343 204 274 31 333 311 296 252 139 177 207 185 196 191 155 145 341 295 276 255 277 351 351 276 215 232 264 278 295 329 191 195 201 208 207 206 204 196 192 191 191 192 193
299 290 285 284 290 300 312 325 318 338 354 0 5 13 15 2 354 307 326 310 295 294 289 278 275 277 278 292 308 329 334 293 237 247 224 223 233 242 249 253 266 280 313 176 266 333 86 129 277 226 234 240 234 204 188 185 167 161 120 124 125 96 297 286 272 297 21 108 307 251 232 308 294 275 293 305 190 191 201 206 209 207 201 197 196 197 197 198
306 299 296 294 294 304 315 330 345 0 3 7 13 22 16 7 9 325 325 314 308 308 295 283 279 275 275 283 293 311 320 304 239 250 232 219 215 222 237 232 239 273 283 223 227 325 50 268 250 229 226 226 228 208 169 122 105 107 116 95 353 81 267 273 260 307 349 110 300 287 203 285 277 268 283 308 2 165 184 195 204 205 204 203 202 203 202 201
314 305 307 308 305 316 314 43 34 17 12 13 18 29 23 8 356 322 322 309 307 310 298 284 273 268 270 273 279 291 295 281 265 258 235 211 200 202 207 162 147 235 295 17 31 346 1 273 254 240 209 168 118 130 129 108 97 81 100 89 340 265 282 299 291 314 358 92 291 319 49 282 273 274 282 287 272 214 189 194 204 206 205 207 208 207 203 200
319 316 317 305 299 12 147 75 32 17 19 24 26 35 25 349 327 326 317 287 295 304 291 270 264 268 271 275 279 273 257 240 263 262 239 212 200 204 195 133 118 242 335 63 152 2 311 251 247 216 135 132 91 94 111 101 90 88 113 117 281 265 267 292 295 320 349 46 246 53 32 305 300 309 289 284 279 278 244 203 206 208 210 213 212 211 205 200
318 332 308 228 200 193 173 34 9 2 15 42 41 37 15 339 319 330 319 274 287 300 282 256 257 268 267 275 283 253 236 232 243 257 237 210 194 191 202 167 113 249 263 164 153 179 250 255 252 100 126 155 185 185 146 162 234 292 167 155 204 237 210 220 274 327 342 357 44 73 22 321 324 338 297 313 334 302 297 268 219 213 217 218 215 213 209 204
310 328 220 204 215 216 216 3 3 8 37 93 44 11 351 334 319 324 327 311 297 294 278 238 247 262 258 268 273 242 234 240 240 249 240 217 204 183 192 178 145 250 246 160 133 196 258 269 284 237 222 166 173 222 203 175 201 305 245 195 197 208 211 231 327 17 26 345 338 51 16 290 317 325 272 297 348 307 302 305 265 247 230 218 215 214 211 208
296 295 217 218 227 219 239 323 334 357 81 217 328 329 333 332 319 311 325 44 331 283 265 194 215 250 248 253 249 225 226 249 239 243 243 236 222 200 174 170 167 246 224 156 131 220 259 288 4 220 233 173 173 231 227 163 135 311 246 203 184 158 142 162 125 81 103 258 296 52 150 250 318 314 268 302 333 301 303 305 276 274 263 227 218 215 210 208
298 291 234 233 235 228 248 275 267 296 292 291 314 326 329 334 330 298 314 44 330 286 284 194 189 223 244 237 207 176 110 266 244 231 227 227 213 199 201 227 207 244 201 116 1 268 272 324 357 31 120 146 173 230 220 151 125 233 235 167 147 144 157 167 146 142 199 234 313 15 112 191 301 278 278 332 335 304 300 295 280 276 275 257 230 220 212 208
316 307 273 252 245 239 244 235 238 284 306 301 311 326 330 338 343 289 85 70 277 284 320 229 219 232 255 235 203 198 222 245 105 224 217 208 197 187 201 220 198 219 198 124 241 264 273 307 301 3 95 144 201 216 187 146 141 241 212 147 149 164 163 146 129 157 256 73 302 322 59 167 275 277 305 353 318 289 285 284 283 280 283 280 251 227 215 210
325 320 310 268 243 236 231 226 252 292 302 302 312 323 330 343 348 65 87 83 262 291 328 283 287 253 259 223 208 229 254 214 194 218 200 192 198 194 229 233 192 178 204 122 196 247 243 231 228 161 139 210 229 220 169 158 191 231 160 116 67 63 92 98 115 141 52 70 240 266 211 174 271 284 311 351 271 262 270 276 275 282 294 303 288 243 217 210
333 338 329 245 219 233 249 261 282 293 298 304 314 318 327 345 41 72 73 244 256 311 311 306 331 295 275 48 257 254 243 232 232 209 196 195 211 222 243 240 142 116 13 18 194 248 284 267 215 164 192 210 209 204 167 173 184 136 105 72 34 25 42 49 73 105 78 281 247 245 203 164 261 283 261 231 232 242 278 291 290 300 318 333 330 279 221 208
341 349 358 219 241 280 294 289 283 295 306 311 316 323 347 26 70 86 164 238 251 326 340 327 318 336 335 170 281 287 264 261 238 186 195 208 231 253 251 253 51 71 6 349 302 301 328 307 224 235 233 189 136 112 69 60 75 92 84 70 53 333 11 21 356 44 135 257 260 246 192 142 193 260 251 251 272 267 248 275 289 310 339 358 360 326 225 210
352 3 61 75 52 345 332 307 282 304 323 324 323 332 103 59 26 100 263 315 307 292 334 296 294 337 330 47 335 299 308 295 265 183 185 195 215 233 207 198 178 27 331 295 298 330 324 252 268 309 265 158 116 333 333 5 33 83 94 82 89 319 3 338 302 320 212 251 255 216 158 144 218 247 263 271 284 282 265 275 293 344 14 22 24 19 223 213
19 104 90 67 46 28 18 0 327 328 348 346 336 354 85 75 18 233 280 340 255 243 297 278 286 338 12 46 7 315 331 324 305 297 195 177 214 244 264 210 161 135 262 225 314 345 328 302 322 347 297 187 136 151 261 317 31 135 144 122 132 131 64 269 271 281 256 268 269 222 194 260 270 283 282 272 288 322 341 348 44 52 45 40 39 45 67 215
39 96 68 18 23 15 15 12 358 358 8 2 5 53 65 72 231 243 290 274 253 318 338 292 311 351 39 65 0 339 19 324 324 353 43 46 314 273 304 275 177 145 166 161 185 179 94 307 297 191 276 315 114 149 170 169 174 204 170 130 144 154 161 226 228 214 250 274 291 287 233 194 158 275 277 274 309 35 53 57 58 55 54 53 47 45 52 61
353 344 308 343 13 0 356 0 357 3 4 3 30 74 95 222 252 248 251 258 285 337 320 331 24 28 8 353 319 16 58 287 329 13 48 64 165 227 258 270 249 124 125 157 236 177 133 258 254 261 285 76 86 199 169 129 115 256 152 107 154 184 162 187 198 182 192 247 292 285 236 216 174 251 281 278 342 53 61 58 53 50 53 56 48 40 44 49
352 335 299 313 358 356 347 344 345 349 353 11 50 70 176 211 228 180 215 259 304 313 330 353 39 54 344 321 331 353 16 347 354 18 4 353 228 232 236 266 286 153 152 164 209 174 102 266 275 318 344 48 72 287 121 102 151 226 102 165 235 190 132 123 275 333 82 110 273 261 244 289 345 317 312 342 43 31 40 56 56 50 51 53 45 37 41 45
347 349 330 295 333 348 342 338 339 335 342 42 79 194 228 215 199 194 238 337 274 17 64 29 351 35 335 328 321 328 353 8 6 19 344 331 332 299 299 304 328 267 194 164 215 210 146 254 285 17 125 305 16 75 48 21 93 116 159 231 250 15 89 112 170 359 44 196 275 277 206 273 328 207 310 356 47 27 15 50 57 50 50 50 44 40 42 43
344 352 12 3 348 342 337 339 337 328 345 61 67 250 236 235 228 298 330 317 245 59 79 120 278 113 127 323 286 303 348 354 347 3 334 322 301 264 315 311 358 9 5 128 152 306 121 232 287 286 162 297 354 85 49 351 33 116 165 190 94 86 286 10 104 126 302 227 284 307 254 243 214 208 248 309 99 59 23 44 56 53 53 52 47 45 43 41
337 338 51 36 1 347 348 342 329 326 28 63 333 258 246 258 324 3 0 345 178 88 82 203 205 26 223 187 233 293 351 352 341 354 324 325 305 317 53 7 321 357 6 82 118 316 66 137 280 297 261 304 356 61 198 317 351 43 72 31 43 138 170 189 133 173 205 207 245 301 312 268 235 208 173 175 181 150 91 64 71 77 70 62 54 49 44 40
339 338 115 33 317 338 353 342 326 3 56 153 203 224 283 284 330 358 7 5 347 117 147 212 176 298 258 215 224 280 355 176 193 314 253 309 315 334 29 22 330 340 355 44 88 347 32 87 253 294 323 325 336 312 168 176 344 25 20 349 344 20 97 302 255 140 146 176 197 227 277 269 255 210 156 162 184 171 131 109 113 101 85 73 60 53 46 41
359 5 152 275 269 311 347 350 357 67 96 189 203 235 311 320 313 337 2 10 356 308 151 173 170 184 206 195 247 238 347 309 207 179 243 289 317 317 11 12 346 317 347 22 40 34 47 138 198 285 333 307 247 240 192 177 165 148 183 247 269 247 12 293 290 308 116 168 180 164 232 268 267 255 166 158 177 191 149 120 115 84 74 69 63 60 53 46
2 355 286 283 269 306 345 6 8 21 119 80 319 279 301 317 305 320 349 7 3 334 57 129 170 175 175 187 217 183 107 279 245 184 220 241 115 206 341 3 7 355 50 22 295 246 138 108 116 244 259 241 252 262 249 219 160 119 149 161 128 124 113 145 224 271 299 251 156 127 176 268 271 297 257 175 174 184 152 115 103 79 62 55 54 58 57 55
347 327 299 286 283 317 357 14 347 357 72 322 318 287 301 315 331 343 346 4 1 336 0 19 199 205 189 180 161 144 118 212 233 220 228 234 100 30 357 8 11 12 55 15 301 329 87 83 69 296 290 308 300 301 310 288 91 90 56 58 101 116 122 152 180 178 204 236 147 127 234 264 282 322 324 212 187 202 160 99 101 86 61 52 52 51 50 53
334 314 295 316 313 307 336 161 315 333 300 324 341 324 318 310 339 0 342 319 320 298 356 328 241 199 204 119 104 169 174 147 236 247 246 221 199 31 16 11 12 15 20 356 307 343 337 299 97 11 329 334 335 345 351 336 40 106 153 36 82 95 87 87 91 89 219 235 162 161 230 247 269 320 327 319 329 330 340 83 87 63 51 55 58 55 47 44
337 310 296 352 356 10 94 97 115 180 286 338 335 311 319 310 331 335 305 293 307 245 194 320 286 91 36 36 52 12 142 118 251 271 17 341 263 25 12 4 11 18 11 18 17 0 266 224 140 132 239 246 282 284 263 281 320 102 131 101 59 35 52 345 20 92 235 262 160 162 219 259 289 317 317 306 314 318 305 2 56 48 57 64 63 60 52 46
352 331 314 352 26 69 83 65 54 75 314 5 333 294 297 251 306 314 300 329 10 17 56 16 354 29 35 33 45 10 359 34 7 8 34 344 291 343 352 356 18 18 18 23 13 8 132 65 157 153 180 205 208 230 230 189 219 265 242 155 171 310 99 112 98 145 199 229 257 215 198 251 278 273 273 282 274 249 255 310 23 67 87 84 74 63 53 48
19 38 347 351 9 51 71 44 32 28 317 1 308 284 300 288 309 324 313 44 34 28 63 49 23 37 26 20 67 37 334 341 11 48 39 324 273 299 332 354 31 19 21 24 9 16 102 1 295 167 198 220 207 230 254 220 218 244 239 179 185 207 173 134 166 219 177 156 273 250 187 213 249 232 242 281 277 251 283 353 38 91 91 77 68 54 43 37
23 51 66 39 336 337 55 3 357 354 329 290 233 306 335 326 321 318 305 26 36 29 48 45 26 39 354 4 102 157 344 359 5 24 205 317 308 318 339 355 40 22 23 23 13 45 118 292 275 212 268 263 229 238 253 247 231 228 223 207 196 204 201 189 210 210 162 177 248 237 189 213 235 221 234 263 274 286 323 14 58 77 62 47 40 35 26 18
26 26 38 21 325 240 291 320 324 348 1 346 346 12 6 344 328 299 304 0 23 13 38 99 338 345 342 60 111 134 30 118 323 308 230 347 348 344 349 326 357 27 29 19 5 47 116 267 273 252 303 301 280 263 253 242 246 252 248 230 202 198 208 215 226 208 184 212 239 229 222 243 241 212 234 271 292 295 6 56 59 50 36 26 21 18 13 11
34 26 347 347 336 314 328 331 341 44 22 7 5 355 0 6 350 316 319 20 9 317 30 101 250 263 152 96 98 132 190 173 175 236 203 81 2 311 319 268 265 8 21 16 347 20 57 285 291 48 359 300 295 307 310 275 238 251 264 243 202 203 221 235 242 208 196 239 257 257 261 269 260 221 235 283 323 82 82 47 36 33 23 13 8 5 5 5
55 45 357 343 337 348 353 348 14 76 40 12 5 330 342 359 340 316 316 49 88 124 52 192 239 292 44 62 82 175 206 181 174 212 203 170 219 233 219 228 249 345 358 8 319 3 46 298 336 45 336 277 288 309 300 321 322 269 247 217 202 207 217 223 222 197 187 212 242 274 279 262 251 229 236 354 47 80 58 13 9 10 7 7 8 11 8 356
48 41 349 349 315 342 6 0 12 60 57 347 344 328 317 316 326 336 352 43 67 64 325 227 200 26 18 32 29 256 234 214 218 243 234 229 243 237 236 253 256 238 222 179 262 229 151 207 292 74 265 269 278 276 280 350 335 278 239 194 197 211 219 225 240 226 199 181 184 216 234 230 206 134 112 19 21 32 356 336 327 324 341 12 22 13 358 343
Height
1500 1499 1498 1498 1497 1497 1496 1495 1494 1493 1492 1491 1490 1489 1488 1488 1487 1487 1487 1487 1487 1488 1488 1489 1489 1490 1489 1489 1489 1489 1489 1489 1488 1488 1486 1485 1486 1487 1488 1489 1489 1489 1490 1491 1491 1492 1492 1492 1493 1494 1495 1495 1496 1495 1495 1496 1496 1497 1499 1504 1506 1503 1499 1495 1493 1491 1489 1487 1482 1478 1479 1479 1477 1478 1479 1482 1484 1484 1487 1489 1490 1490 1490 1492 1494 1496 1498 1500
1500 1499 1498 1498 1497 1496 1496 1495 1494 1493 1492 1491 1490 1489 1488 1487 1487 1487 1487 1487 1487 1488 1488 1489 1489 1489 1489 1489 1489 1489 1488 1488 1487 1486 1485 1485 1485 1485 1487 1488 1489 1489 1490 1491 1491 1492 1492 1493 1493 1494 1495 1495 1495 1495 1495 1495 1495 1497 1500 1503 1502 1497 1493 1490 1489 1488 1488 1487 1483 1479 1479 1479 1477 1477 1479 1482 1487 1486 1487 1491 1492 1491 1492 1494 1496 1498 1499 1500
1500 1499 1498 1497 1497 1496 1496 1495 1494 1493 1492 1491 1490 1489 1488 1487 1487 1487 1487 1487 1487 1488 1488 1488 1488 1489 1489 1489 1489 1488 1488 1487 1486 1484 1484 1483 1484 1485 1486 1487 1488 1489 1490 1490 1491 1491 1492 1493 1494 1494 1495 1495 1495 1495 1495 1495 1495 1495 1498 1501 1497 1492 1490 1487 1487 1485 1486 1486 1483 1480 1479 1481 1479 1478 1480 1482 1487 1488 1487 1489 1490 1492 1493 1495 1496 1498 1499 1501
1500 1499 1498 1497 1497 1496 1495 1495 1494 1493 1492 1491 1490 1489 1488 1488 1487 1487 1487 1487 1488 1488 1488 1488 1488 1488 1489 1489 1489 1488 1488 1486 1484 1484 1484 1483 1484 1485 1486 1487 1488 1489 1489 1490 1490 1491 1492 1493 1494 1494 1494 1495 1495 1495 1495 1494 1495 1494 1495 1497 1492 1490 1489 1485 1484 1484 1484 1485 1483 1481 1481 1483 1481 1480 1481 1482 1488 1492 1488 1484 1484 1487 1490 1493 1495 1497 1498 1500
1499 1499 1498 1497 1497 1496 1495 1495 1494 1493 1492 1491 1490 1489 1489 1488 1488 1487 1487 1488 1488 1488 1488 1488 1488 1488 1488 1488 1489 1488 1488 1487 1484 1484 1484 1484 1484 1485 1486 1487 1488 1488 1488 1489 1490 1491 1492 1493 1493 1494 1495 1495 1494 1494 1494 1493 1494 1494 1492 1491 1489 1489 1488 1483 1482 1483 1483 1484 1483 1482 1482 1483 1482 1482 1482 1481 1485 1486 1484 1482 1482 1483 1486 1488 1492 1495 1497 1499
1500 1499 1498 1497 1497 1496 1495 1495 1494 1493 1492 1491 1490 1489 1489 1488 1488 1488 1488 1488 1488 1488 1488 1488 1488 1488 1488 1488 1488 1488 1488 1487 1484 1484 1484 1484 1484 1485 1486 1486 1487 1488 1488 1489 1490 1491 1492 1493 1493 1494 1495 1494 1494 1493 1492 1492 1493 1494 1491 1488 1487 1488 1487 1483 1482 1483 1482 1483 1482 1482 1482 1482 1482 1484 1483 1481 1481 1480 1480 1483 1484 1483 1484 1486 1489 1492 1495 1498
1500 1499 1498 1498 1497 1496 1495 1495 1494 1493 1492 1491 1490 1490 1489 1489 1488 1488 1488 1488 1488 1488 1488 1488 1488 1488 1488 1488 1488 1488 1488 1486 1484 1485 1484 1484 1484 1484 1485 1485 1486 1487 1487 1488 1489 1491 1492 1493 1493 1494 1495 1494 1493 1492 1491 1491 1492 1493 1490 1487 1486 1486 1485 1482 1481 1482 1483 1483 1482 1482 1482 1481 1482 1483 1484 1483 1481 1481 1482 1484 1485 1485 1486 1488 1489 1492 1495 1498
1500 1499 1499 1498 1497 1496 1496 1495 1494 1493 1492 1491 1490 1490 1489 1489 1489 1488 1488 1488 1488 1488 1488 1488 1488 1488 1488 1488 1488 1488 1487 1485 1484 1484 1484 1483 1484 1483 1484 1484 1485 1486 1486 1488 1489 1491 1492 1492 1493 1493 1494 1494 1492 1492 1491 1491 1491 1491 1489 1485 1484 1484 1483 1481 1480 1480 1481 1483 1482 1481 1481 1481 1482 1482 1483 1483 1482 1482 1482 1484 1486 1487 1489 1490 1491 1493 1496 1498
1501 1500 1499 1499 1498 1497 1496 1495 1494 1493 1492 1491 1491 1490 1489 1489 1489 1489 1488 1488 1488 1488 1488 1488 1488 1488 1488 1488 1488 1487 1486 1485 1484 1484 1483 1483 1483 1483 1483 1484 1484 1485 1486 1488 1489 1491 1492 1492 1493 1493 1494 1493 1492 1491 1490 1491 1491 1488 1486 1485 1484 1483 1481 1481 1479 1478 1480 1482 1481 1481 1481 1480 1480 1482 1482 1482 1482 1483 1484 1485 1487 1488 1489 1491 1493 1494 1496 1498
1501 1500 1500 1499 1498 1497 1496 1495 1494 1493 1492 1491 1491 1490 1489 1489 1489 1489 1489 1488 1488 1488 1489 1488 1488 1488 1488 1488 1488 1487 1485 1485 1485 1483 1483 1482 1483 1483 1483 1484 1484 1485 1487 1488 1489 1490 1491 1491 1492 1493 1493 1492 1491 1490 1490 1491 1489 1485 1485 1484 1482 1480 1480 1480 1478 1477 1479 1480 1479 1480 1482 1480 1480 1481 1482 1481 1482 1483 1485 1487 1488 1489 1490 1491 1494 1495 1497 1498
1502 1501 1500 1499 1498 1498 1496 1495 1494 1493 1493 1492 1491 1490 1489 1489 1489 1489 1489 1489 1489 1489 1489 1488 1488 1488 1488 1488 1488 1487 1485 1485 1484 1483 1483 1483 1483 1483 1484 1484 1485 1487 1488 1489 1490 1490 1490 1491 1492 1492 1492 1491 1490 1489 1488 1488 1486 1484 1484 1483 1480 1478 1479 1479 1478 1478 1478 1478 1478 1478 1480 1480 1480 1481 1480 1479 1481 1483 1484 1487 1489 1490 1490 1492 1494 1496 1497 1499
1502 1501 1500 1500 1499 1498 1497 1496 1495 1494 1493 1492 1491 1490 1489 1489 1489 1489 1489 1489 1489 1488 1488 1489 1488 1488 1488 1488 1487 1486 1485 1485 1484 1483 1483 1483 1484 1485 1485 1486 1487 1488 1489 1489 1490 1490 1490 1490 1491 1491 1491 1491 1490 1488 1486 1485 1485 1483 1482 1482 1480 1478 1478 1478 1477 1478 1478 1478 1477 1478 1482 1483 1481 1480 1478 1479 1481 1483 1484 1486 1488 1490 1491 1493 1495 1496 1498 1499
1502 1501 1501 1500 1499 1498 1497 1496 1495 1494 1494 1493 1492 1491 1490 1489 1489 1489 1489 1489 1489 1489 1488 1488 1488 1488 1488 1486 1485 1485 1484 1484 1484 1484 1484 1484 1485 1485 1486 1487 1487 1488 1488 1489 1488 1489 1489 1490 1491 1490 1490 1490 1489 1487 1485 1484 1483 1482 1481 1482 1481 1481 1481 1478 1478 1478 1477 1479 1477 1479 1488 1487 1480 1480 1480 1481 1482 1484 1486 1486 1488 1490 1491 1493 1495 1496 1497 1498
1502 1502 1501 1500 1499 1499 1498 1497 1496 1495 1494 1493 1492 1492 1491 1490 1490 1489 1489 1489 1489 1489 1489 1489 1488 1488 1487 1486 1484 1484 1484 1484 1484 1484 1484 1484 1485 1485 1486 1486 1487 1487 1488 1488 1488 1488 1488 1489 1490 1489 1489 1489 1487 1486 1485 1484 1483 1483 1482 1483 1487 1487 1484 1480 1480 1480 1478 1479 1477 1479 1490 1486 1479 1481 1481 1482 1483 1484 1486 1487 1488 1489 1491 1492 1494 1495 1496 1497
1502 1501 1501 1500 1499 1499 1498 1497 1496 1495 1495 1494 1493 1492 1491 1491 1490 1490 1489 1489 1489 1489 1489 1489 1488 1488 1487 1484 1484 1484 1483 1483 1483 1484 1484 1484 1485 1485 1486 1486 1487 1487 1487 1487 1487 1487 1488 1489 1489 1488 1488 1487 1486 1486 1487 1487 1485 1486 1486 1487 1491 1490 1487 1483 1480 1481 1479 1479 1477 1480 1488 1484 1478 1480 1481 1483 1484 1484 1486 1487 1488 1489 1490 1492 1492 1494 1495 1497
1502 1501 1500 1500 1499 1499 1498 1497 1496 1496 1495 1494 1493 1493 1491 1491 1490 1490 1490 1489 1489 1489 1489 1489 1488 1488 1487 1483 1483 1483 1483 1483 1483 1484 1484 1484 1484 1485 1486 1486 1486 1487 1487 1487 1487 1487 1488 1489 1488 1488 1487 1486 1488 1488 1490 1492 1489 1490 1491 1490 1491 1490 1490 1485 1480 1480 1480 1480 1478 1480 1484 1482 1477 1477 1479 1482 1483 1484 1485 1486 1487 1488 1489 1491 1492 1493 1495 1497
1501 1501 1500 1499 1499 1499 1498 1497 1497 1496 1495 1495 1494 1493 1492 1491 1490 1490 1490 1490 1489 1489 1489 1488 1488 1488 1485 1482 1483 1483 1483 1483 1483 1484 1484 1484 1484 1485 1485 1486 1486 1487 1487 1486 1486 1486 1487 1488 1488 1487 1487 1488 1489 1489 1494 1499 1495 1493 1493 1492 1493 1493 1492 1489 1483 1479 1479 1480 1480 1479 1481 1479 1477 1476 1478 1481 1482 1483 1484 1484 1485 1486 1487 1489 1491 1492 1494 1495
1501 1500 1499 1499 1499 1498 1498 1497 1497 1496 1496 1495 1494 1493 1492 1491 1491 1490 1490 1490 1489 1489 1489 1488 1488 1488 1485 1482 1482 1482 1483 1483 1483 1483 1483 1484 1484 1485 1485 1486 1486 1486 1486 1486 1486 1486 1486 1487 1487 1488 1489 1490 1490 1490 1496 1500 1496 1494 1494 1493 1495 1495 1493 1492 1487 1481 1479 1480 1481 1482 1481 1479 1478 1478 1479 1481 1482 1483 1484 1484 1484 1484 1485 1487 1489 1491 1492 1494
1500 1499 1499 1498 1498 1498 1497 1497 1497 1496 1496 1495 1494 1493 1492 1491 1491 1490 1490 1490 1489 1488 1488 1487 1487 1488 1485 1482 1482 1482 1482 1481 1482 1482 1483 1483 1484 1484 1485 1485 1486 1486 1486 1486 1486 1485 1486 1487 1488 1491 1491 1490 1489 1489 1491 1492 1491 1491 1492 1493 1494 1494 1493 1490 1486 1482 1482 1483 1483 1484 1483 1481 1481 1479 1479 1481 1483 1483 1483 1484 1485 1485 1486 1487 1488 1489 1491 1492
1499 1499 1498 1498 1498 1497 1497 1497 1496 1496 1496 1495 1495 1493 1493 1492 1491 1490 1490 1488 1487 1487 1486 1486 1486 1485 1484 1481 1481 1482 1481 1481 1481 1482 1482 1483 1483 1484 1484 1485 1486 1486 1486 1487 1487 1486 1486 1489 1491 1492 1490 1488 1487 1488 1488 1488 1490 1490 1490 1491 1493 1495 1492 1487 1484 1482 1482 1483 1485 1486 1484 1484 1483 1480 1479 1479 1481 1483 1484 1485 1485 1486 1487 1487 1488 1488 1489 1490
1499 1498 1498 1497 1497 1497 1497 1496 1496 1496 1496 1496 1495 1494 1494 1493 1493 1493 1490 1486 1485 1485 1484 1484 1484 1483 1482 1481 1481 1482 1482 1481 1481 1481 1482 1482 1483 1484 1484 1485 1485 1487 1487 1487 1487 1486 1487 1491 1491 1488 1487 1486 1487 1489 1489 1489 1490 1490 1489 1490 1492 1495 1491 1486 1484 1482 1482 1483 1486 1487 1484 1483 1482 1480 1479 1477 1477 1480 1482 1483 1483 1484 1485 1486 1487 1487 1488 1490
1498 1498 1497 1497 1497 1497 1496 1496 1496 1496 1496 1495 1495 1495 1495 1495 1495 1494 1492 1488 1483 1482 1483 1482 1482 1481 1480 1480 1481 1482 1483 1482 1481 1480 1481 1482 1482 1483 1483 1484 1485 1487 1487 1487 1488 1489 1490 1490 1486 1484 1486 1488 1488 1489 1489 1488 1489 1489 1490 1491 1492 1494 1492 1487 1484 1483 1484 1482 1484 1485 1482 1481 1481 1480 1479 1477 1476 1477 1479 1481 1481 1482 1484 1486 1486 1486 1488 1490
1498 1497 1497 1497 1496 1496 1496 1496 1496 1496 1496 1495 1495 1495 1495 1495 1495 1494 1494 1491 1485 1481 1481 1481 1481 1480 1479 1479 1480 1481 1481 1481 1480 1479 1480 1481 1481 1482 1483 1483 1485 1487 1487 1487 1489 1492 1493 1486 1481 1483 1486 1487 1487 1489 1489 1488 1488 1489 1490 1491 1492 1493 1493 1490 1485 1484 1484 1484 1484 1484 1482 1481 1481 1479 1477 1477 1476 1476 1478 1479 1480 1481 1482 1483 1484 1484 1486 1487
1498 1497 1497 1497 1497 1496 1496 1496 1496 1496 1496 1495 1495 1495 1495 1495 1495 1494 1493 1491 1487 1481 1479 1479 1480 1479 1478 1478 1479 1479 1479 1479 1479 1478 1479 1480 1480 1481 1482 1482 1485 1486 1486 1487 1488 1492 1490 1482 1481 1484 1485 1485 1486 1488 1489 1488 1488 1490 1489 1489 1490 1489 1490 1490 1488 1485 1484 1485 1485 1484 1486 1485 1482 1481 1477 1476 1477 1476 1476 1478 1478 1479 1479 1480 1482 1483 1484 1485
1497 1497 1497 1497 1497 1496 1496 1497 1496 1496 1495 1495 1495 1495 1495 1495 1494 1494 1492 1493 1490 1482 1478 1479 1479 1478 1477 1478 1478 1478 1478 1478 1477 1477 1477 1478 1479 1480 1481 1482 1484 1485 1485 1487 1489 1490 1486 1481 1482 1483 1483 1485 1486 1487 1487 1487 1489 1491 1488 1485 1485 1485 1487 1489 1490 1489 1490 1491 1487 1487 1494 1492 1485 1484 1480 1477 1478 1477 1476 1477 1476 1476 1476 1478 1479 1480 1482 1483
1497 1497 1497 1497 1497 1496 1497 1496 1496 1496 1495 1495 1495 1494 1495 1494 1493 1493 1493 1497 1494 1482 1478 1479 1478 1477 1476 1477 1477 1477 1480 1478 1475 1476 1477 1477 1478 1479 1480 1482 1482 1483 1483 1485 1487 1486 1483 1480 1480 1481 1482 1485 1486 1487 1486 1486 1491 1492 1486 1482 1483 1485 1488 1490 1490 1491 1495 1496 1491 1490 1497 1497 1489 1483 1479 1479 1479 1476 1475 1476 1474 1473 1474 1475 1475 1475 1477 1479
1497 1497 1497 1497 1496 1496 1497 1496 1496 1496 1495 1495 1494 1494 1494 1492 1492 1492 1494 1502 1496 1482 1478 1479 1478 1477 1476 1476 1476 1478 1482 1478 1474 1475 1474 1475 1477 1477 1480 1482 1482 1482 1481 1484 1487 1485 1481 1479 1479 1481 1483 1485 1487 1486 1484 1485 1490 1490 1483 1481 1484 1485 1487 1489 1489 1491 1493 1493 1493 1492 1493 1498 1496 1485 1480 1482 1481 1477 1475 1474 1473 1472 1471 1471 1471 1471 1472 1474
1497 1497 1497 1496 1496 1496 1496 1496 1496 1495 1495 1495 1493 1493 1492 1491 1492 1491 1496 1505 1496 1481 1478 1478 1476 1476 1475 1476 1476 1476 1478 1476 1475 1475 1473 1475 1476 1476 1479 1480 1480 1480 1479 1483 1488 1485 1481 1479 1479 1480 1483 1486 1484 1480 1480 1482 1484 1483 1480 1482 1484 1483 1485 1487 1488 1491 1494 1495 1495 1494 1494 1500 1501 1489 1482 1485 1483 1479 1475 1473 1472 1470 1468 1467 1467 1467 1468 1470
1497 1497 1496 1496 1496 1496 1496 1496 1496 1495 1495 1494 1493 1493 1491 1491 1491 1492 1500 1504 1490 1479 1479 1477 1476 1477 1475 1475 1476 1475 1475 1475 1475 1475 1473 1475 1476 1476 1478 1478 1478 1479 1479 1482 1484 1482 1480 1478 1477 1479 1482 1482 1478 1476 1477 1479 1480 1479 1480 1483 1483 1485 1488 1489 1490 1491 1495 1499 1497 1493 1493 1500 1502 1491 1484 1485 1483 1479 1475 1472 1471 1469 1466 1464 1463 1463 1465 1466
1497 1497 1497 1496 1496 1496 1496 1496 1495 1495 1494 1493 1492 1492 1490 1491 1492 1497 1506 1501 1487 1481 1479 1477 1477 1477 1475 1476 1476 1475 1475 1475 1474 1474 1474 1475 1476 1476 1477 1477 1477 1479 1481 1482 1481 1479 1477 1476 1477 1477 1477 1476 1474 1475 1477 1476 1477 1478 1480 1482 1484 1487 1488 1491 1494 1492 1497 1503 1495 1490 1492 1497 1501 1493 1483 1482 1480 1477 1475 1472 1470 1466 1463 1460 1458 1459 1461 1463
1497 1497 1496 1496 1496 1496 1496 1496 1495 1494 1493 1492 1492 1490 1490 1492 1495 1503 1505 1493 1486 1484 1479 1478 1478 1476 1476 1477 1477 1476 1475 1475 1473 1473 1474 1475 1476 1477 1477 1478 1478 1480 1484 1482 1480 1480 1478 1476 1476 1473 1472 1473 1472 1474 1477 1478 1478 1479 1480 1483 1487 1491 1491 1493 1495 1495 1501 1503 1493 1491 1495 1497 1499 1491 1480 1479 1478 1476 1476 1473 1471 1468 1463 1459 1456 1457 1460 1462
1497 1497 1497 1496 1496 1496 1495 1495 1494 1494 1493 1491 1491 1489 1491 1495 1500 1504 1498 1488 1488 1487 1481 1481 1480 1477 1477 1477 1478 1477 1475 1475 1474 1472 1474 1475 1476 1477 1477 1479 1479 1483 1488 1486 1483 1481 1477 1474 1474 1472 1470 1471 1473 1476 1479 1479 1479 1480 1482 1486 1493 1499 1502 1501 1500 1502 1504 1499 1493 1496 1497 1496 1494 1485 1478 1479 1477 1475 1475 1474 1472 1469 1464 1461 1459 1459 1461 1464
1498 1497 1497 1497 1496 1496 1495 1494 1493 1493 1492 1491 1491 1489 1492 1501 1503 1501 1495 1490 1490 1486 1482 1482 1480 1479 1479 1479 1481 1479 1476 1477 1475 1473 1474 1475 1477 1477 1477 1478 1479 1482 1486 1489 1487 1483 1479 1476 1474 1473 1470 1469 1472 1477 1480 1481 1481 1481 1480 1485 1494 1503 1511 1510 1508 1511 1507 1496 1495 1499 1497 1494 1491 1485 1481 1479 1477 1476 1475 1475 1472 1467 1465 1464 1463 1462 1462 1464
1498 1497 1497 1497 1496 1496 1495 1494 1493 1492 1492 1491 1490 1490 1496 1503 1501 1496 1494 1491 1488 1483 1482 1483 1480 1480 1480 1482 1484 1481 1480 1481 1478 1476 1477 1477 1479 1479 1477 1477 1478 1479 1483 1488 1489 1487 1487 1484 1476 1473 1473 1471 1471 1474 1477 1479 1480 1481 1481 1483 1488 1494 1502 1505 1503 1503 1500 1495 1495 1496 1493 1490 1489 1487 1484 1479 1478 1478 1476 1474 1471 1466 1465 1464 1464 1465 1464 1464
1498 1498 1497 1496 1496 1496 1495 1494 1493 1492 1492 1490 1490 1495 1500 1502 1499 1496 1493 1489 1486 1485 1484 1483 1481 1481 1483 1484 1484 1482 1482 1483 1479 1477 1477 1479 1481 1480 1477 1476 1476 1478 1482 1487 1489 1489 1490 1485 1475 1473 1472 1471 1472 1473 1473 1475 1478 1483 1483 1483 1485 1483 1486 1495 1500 1499 1497 1497 1495 1493 1490 1488 1489 1487 1483 1480 1479 1477 1475 1472 1469 1468 1466 1464 1465 1467 1467 1467
1498 1497 1497 1496 1496 1495 1495 1494 1493 1492 1492 1490 1493 1498 1499 1497 1495 1494 1491 1487 1486 1486 1485 1484 1483 1485 1487 1486 1485 1484 1482 1482 1480 1479 1479 1480 1482 1481 1479 1477 1476 1477 1478 1482 1486 1487 1489 1484 1475 1474 1473 1471 1473 1473 1471 1473 1477 1482 1484 1482 1482 1481 1479 1489 1502 1504 1502 1500 1499 1497 1491 1486 1489 1487 1481 1479 1478 1475 1474 1471 1470 1471 1467 1465 1468 1470 1469 1470
1497 1497 1496 1496 1496 1495 1495 1494 1493 1492 1491 1491 1495 1498 1496 1493 1490 1489 1487 1485 1486 1486 1486 1488 1487 1488 1491 1489 1488 1487 1483 1482 1483 1484 1484 1483 1483 1481 1480 1478 1476 1476 1475 1478 1481 1482 1485 1483 1476 1474 1474 1471 1472 1472 1472 1472 1473 1479 1483 1481 1480 1482 1481 1485 1495 1502 1506 1506 1501 1499 1494 1487 1489 1489 1483 1480 1479 1478 1477 1473 1472 1472 1469 1469 1472 1472 1472 1472
1497 1496 1496 1496 1496 1495 1495 1494 1492 1492 1492 1493 1497 1498 1495 1491 1488 1487 1486 1485 1485 1485 1488 1491 1489 1489 1492 1492 1491 1488 1485 1486 1487 1487 1486 1485 1483 1482 1481 1479 1477 1476 1476 1476 1478 1480 1482 1483 1478 1474 1476 1474 1471 1473 1475 1474 1474 1476 1479 1479 1482 1486 1487 1488 1494 1499 1504 1509 1504 1498 1499 1495 1487 1485 1483 1482 1481 1480 1479 1475 1474 1474 1473 1473 1474 1474 1474 1473
1496 1496 1496 1496 1496 1495 1494 1494 1492 1492 1492 1495 1499 1498 1494 1491 1488 1488 1488 1486 1485 1486 1488 1490 1489 1489 1491 1491 1491 1489 1488 1489 1490 1489 1489 1487 1485 1481 1480 1481 1478 1477 1476 1474 1477 1481 1483 1486 1482 1476 1476 1476 1473 1474 1479 1479 1477 1476 1477 1480 1483 1487 1490 1492 1496 1496 1497 1504 1505 1499 1498 1493 1482 1480 1480 1481 1482 1481 1478 1477 1476 1477 1477 1476 1476 1476 1475 1474
1496 1496 1496 1495 1495 1494 1494 1493 1492 1493 1493 1496 1499 1496 1492 1491 1489 1488 1488 1487 1486 1486 1487 1488 1488 1489 1489 1489 1490 1490 1489 1490 1490 1490 1490 1488 1486 1482 1482 1483 1480 1478 1477 1475 1478 1481 1483 1487 1487 1480 1477 1478 1478 1479 1482 1482 1481 1480 1480 1483 1484 1487 1492 1492 1494 1496 1494 1498 1503 1501 1496 1488 1479 1479 1479 1479 1481 1480 1478 1477 1477 1478 1478 1478 1478 1477 1476 1475
1496 1496 1495 1495 1495 1494 1493 1493 1493 1494 1495 1496 1497 1495 1493 1492 1490 1489 1488 1487 1486 1485 1485 1486 1487 1488 1488 1489 1490 1489 1490 1490 1490 1490 1489 1488 1487 1486 1484 1484 1483 1481 1479 1477 1479 1481 1483 1486 1487 1484 1480 1479 1481 1481 1480 1480 1482 1483 1482 1484 1485 1488 1491 1493 1495 1498 1495 1495 1498 1500 1496 1487 1480 1481 1480 1479 1481 1480 1478 1478 1477 1477 1478 1478 1479 1478 1477 1476
1497 1496 1496 1494 1494 1494 1493 1493 1495 1496 1496 1496 1496 1495 1493 1492 1491 1490 1488 1487 1487 1485 1485 1485 1486 1487 1488 1488 1489 1489 1490 1490 1489 1489 1488 1487 1489 1488 1486 1484 1483 1481 1480 1481 1481 1481 1483 1485 1486 1486 1483 1482 1482 1481 1480 1480 1480 1482 1483 1485 1487 1489 1491 1493 1496 1496 1496 1497 1498 1500 1497 1488 1482 1483 1482 1481 1481 1480 1479 1478 1477 1477 1477 1477 1478 1478 1478 1477
1497 1496 1494 1493 1493 1493 1492 1494 1496 1497 1496 1496 1495 1494 1493 1492 1491 1490 1489 1488 1488 1486 1486 1486 1485 1486 1486 1486 1487 1488 1489 1489 1488 1488 1488 1487 1488 1489 1487 1484 1482 1481 1481 1483 1483 1482 1483 1486 1487 1487 1486 1484 1481 1479 1480 1481 1480 1482 1485 1486 1487 1489 1489 1491 1493 1495 1495 1495 1496 1499 1498 1490 1484 1485 1484 1483 1483 1481 1480 1479 1478 1478 1478 1477 1477 1477 1477 1478
1497 1495 1494 1493 1493 1492 1493 1495 1497 1498 1498 1497 1495 1494 1493 1492 1491 1490 1490 1489 1488 1487 1487 1486 1486 1485 1485 1486 1486 1487 1489 1490 1489 1488 1488 1488 1488 1488 1487 1485 1483 1483 1483 1484 1485 1484 1484 1487 1489 1491 1492 1490 1486 1484 1482 1481 1481 1484 1487 1488 1488 1488 1489 1492 1494 1497 1496 1494 1493 1493 1493 1489 1486 1486 1485 1483 1482 1481 1481 1481 1479 1479 1478 1477 1477 1477 1477 1477
1497 1494 1493 1493 1492 1491 1494 1497 1498 1499 1499 1499 1497 1495 1493 1492 1491 1491 1490 1489 1488 1488 1487 1487 1485 1485 1486 1487 1487 1487 1488 1489 1489 1489 1489 1489 1488 1488 1487 1486 1486 1485 1485 1485 1485 1484 1486 1489 1489 1491 1495 1497 1494 1491 1487 1483 1483 1487 1489 1489 1488 1488 1489 1490 1493 1496 1497 1497 1495 1491 1488 1488 1487 1486 1485 1483 1482 1482 1481 1481 1480 1479 1478 1477 1477 1477 1477 1477
1498 1496 1494 1494 1493 1493 1496 1498 1499 1499 1500 1500 1498 1495 1494 1494 1492 1490 1489 1489 1489 1488 1488 1488 1486 1486 1488 1489 1489 1491 1490 1490 1490 1491 1491 1492 1490 1489 1488 1487 1487 1487 1485 1485 1484 1483 1487 1490 1489 1489 1492 1493 1490 1487 1486 1485 1484 1485 1487 1489 1489 1489 1489 1490 1493 1496 1495 1495 1494 1489 1487 1486 1485 1486 1486 1483 1482 1482 1482 1481 1480 1479 1478 1478 1477 1477 1477 1476
1500 1500 1500 1498 1496 1496 1497 1499 1499 1500 1501 1500 1499 1496 1494 1494 1493 1491 1489 1489 1489 1488 1489 1491 1490 1490 1492 1491 1491 1493 1493 1493 1492 1493 1495 1496 1493 1491 1489 1487 1488 1487 1486 1485 1484 1485 1488 1489 1489 1489 1488 1487 1487 1485 1485 1487 1485 1483 1485 1488 1489 1488 1487 1489 1492 1492 1493 1495 1493 1488 1487 1486 1483 1484 1484 1481 1480 1481 1481 1480 1479 1479 1479 1478 1478 1477 1476 1476
1501 1502 1503 1503 1501 1500 1500 1500 1500 1501 1501 1500 1499 1497 1496 1495 1495 1493 1490 1489 1489 1489 1489 1492 1493 1494 1494 1493 1492 1493 1494 1494 1493 1495 1497 1497 1495 1492 1489 1488 1488 1487 1487 1487 1486 1488 1491 1490 1490 1490 1486 1485 1486 1486 1485 1487 1486 1484 1484 1486 1488 1488 1487 1488 1489 1488 1490 1492 1488 1484 1486 1484 1482 1483 1482 1479 1479 1479 1479 1478 1477 1477 1477 1477 1477 1476 1476 1475
1502 1503 1503 1503 1503 1503 1502 1502 1501 1501 1500 1500 1499 1498 1499 1498 1497 1495 1492 1490 1491 1491 1491 1492 1494 1495 1494 1493 1493 1494 1495 1494 1494 1496 1497 1496 1496 1495 1492 1490 1489 1488 1488 1489 1489 1489 1491 1491 1492 1492 1488 1485 1484 1484 1485 1486 1485 1484 1484 1485 1487 1488 1486 1486 1486 1486 1487 1486 1481 1482 1486 1484 1481 1483 1481 1478 1479 1479 1478 1477 1476 1476 1476 1476 1476 1475 1475 1476
1504 1504 1504 1503 1503 1502 1502 1502 1501 1501 1501 1500 1500 1500 1500 1500 1499 1497 1494 1492 1493 1494 1493 1493 1494 1494 1494 1493 1492 1493 1495 1494 1494 1495 1496 1496 1496 1496 1494 1493 1491 1490 1490 1490 1491 1491 1491 1492 1493 1491 1489 1487 1484 1483 1484 1486 1486 1486 1485 1485 1486 1486 1486 1486 1485 1486 1486 1484 1481 1483 1486 1484 1481 1481 1480 1478 1478 1477 1477 1477 1476 1476 1476 1476 1476 1476 1476 1476
1506 1506 1506 1505 1504 1503 1502 1502 1501 1501 1502 1503 1503 1502 1501 1501 1500 1498 1496 1494 1494 1494 1494 1494 1493 1493 1493 1493 1493 1493 1493 1493 1493 1493 1493 1494 1494 1494 1493 1493 1492 1492 1492 1491 1492 1491 1492 1495 1493 1492 1493 1490 1484 1483 1483 1483 1484 1484 1484 1485 1484 1482 1482 1482 1482 1482 1481 1480 1480 1482 1483 1480 1479 1479 1479 1478 1477 1477 1477 1478 1477 1476 1477 1477 1477 1476 1476 1476
1507 1507 1506 1506 1505 1504 1503 1503 1502 1502 1503 1505 1505 1503 1502 1501 1500 1498 1496 1495 1494 1495 1495 1494 1494 1494 1493 1493 1493 1493 1492 1492 1492 1492 1491 1492 1492 1491 1491 1491 1491 1492 1491 1492 1492 1492 1492 1493 1492 1494 1496 1490 1486 1486 1485 1484 1485 1482 1478 1479 1478 1477 1478 1478 1478 1478 1477 1476 1477 1478 1477 1475 1477 1479 1478 1478 1478 1477 1477 1477 1477 1477 1477 1477 1477 1477 1476 1476